This demonstration page uses our WeatherBlox Daily Observations layout. Learn more.

Left ArrowRight Arrow

Hourly Observations for February 11, 2019

Temp ( °F °C ) Dew Point ( °F °C ) Humidity (%) Winds ( mph kmh ) Pressure ( in mb ) Visibility ( mi km ) Precip ( " mm )
12:52 am 00:52 Cloudy with Mist and Fog 27 -2.8 22 -5.6 81 81 ENE 5 7 30.16 1021 6 10 0.00 0.00
1:02 am 01:02 Cloudy with Mist and Fog 27 -2.8 22 -5.6 81 81 ENE 5 7 30.18 1022 6 10 0.00 0.00
1:52 am 01:52 Cloudy with Mist and Fog 27 -2.8 22 -5.6 81 81 ENE 5 7 30.16 1021 6 10 0.00 0.00
2:52 am 02:52 Cloudy with Mist and Fog 27 -2.8 22 -5.6 81 81 ENE 7 11 30.14 1021 6 10 0.00 0.00
3:52 am 03:52 Cloudy with Mist and Fog 26 -3.3 22 -5.6 84 84 E 7 11 30.11 1020 6 10 0.00 0.00
4:09 am 04:09 Cloudy with Mist and Fog 26 -3.3 22 -5.6 84 84 E 8 13 30.14 1021 6 10 0.00 0.00
4:52 am 04:52 Cloudy with Mist and Fog 27 -2.8 22 -5.6 81 81 E 8 13 30.08 1019 6 10 0.00 0.00
5:52 am 05:52 Cloudy with Mist and Fog 26 -3.3 22 -5.6 84 84 E 9 15 30.08 1019 6 10 0.00 0.00
6:52 am 06:52 Cloudy with Mist and Fog 26 -3.3 22 -5.6 84 84 E 13 20 30.06 1018 4 6 0.00 0.00
7:16 am 07:16 Cloudy with Mist and Fog 25 -3.9 22 -5.6 88 88 ENE 10 17 30.09 1019 3 4 0.00 0.00
7:52 am 07:52 Cloudy with Mist and Fog 25 -3.9 22 -5.6 88 88 E 10 17 30.04 1017 2 3 0.00 0.00
8:52 am 08:52 Cloudy with Mist and Fog 25 -3.9 21 -6.1 85 85 E 8 13 30.02 1017 3 5 0.00 0.00
9:52 am 09:52 Cloudy with Haze 25 -3.9 20 -6.7 81 81 ENE 6 9 30.02 1017 3 5 0.00 0.00
10:24 am 10:24 Cloudy with Light Freezing Drizzle 24 -4.4 21 -6.1 88 88 ENE 8 13 30.05 1018 2 3 0.00 0.03
10:40 am 10:40 Cloudy with Light Freezing Drizzle 25 -3.9 21 -6.1 85 85 ENE 8 13 30.04 1017 2 2 0.00 0.03
10:52 am 10:52 Cloudy with Light Freezing Drizzle 25 -3.9 21 -6.1 85 85 ENE 9 15 30.00 1016 2 2 0.00 0.03
11:23 am 11:23 Cloudy with Mist and Fog 25 -3.9 21 -6.1 85 85 E 7 11 30.03 1017 3 4 0.00 0.03
11:52 am 11:52 Cloudy with Light Snow 25 -3.9 21 -6.1 85 85 ENE 9 15 29.98 1015 3 4 0.00 0.03
12:52 pm 12:52 Cloudy with Light Snow 26 -3.3 21 -6.1 81 81 E 10 17 29.95 1014 1 2 0.01 0.25
1:14 pm 13:14 Cloudy with Snow 26 -3.3 22 -5.6 84 84 ENE 6 9 29.98 1015 1 1 0.01 0.25
1:32 pm 13:32 Cloudy with Light Snow 26 -3.3 22 -5.6 84 84 ENE 5 7 29.98 1015 1 1 0.02 0.51
1:52 pm 13:52 Mostly Cloudy with Snow 27 -2.8 22 -5.6 81 81 E 5 7 29.93 1013 1 1 0.03 0.76
1:59 pm 13:59 Mostly Cloudy with Light Snow 27 -2.8 22 -5.6 81 81 E 3 6 29.95 1014 1 2 0.00 0.03
2:09 pm 14:09 Cloudy with Light Snow 27 -2.8 22 -5.6 81 81 E 8 13 29.95 1014 1 1 0.00 0.03
2:48 pm 14:48 Mostly Cloudy with Heavy Snow 27 -3 21 -6 80 80 ENE 7 11 29.95 1014 0 0 0.05 1.27
2:49 pm 14:49 Mostly Cloudy with Heavy Snow 27 -2.8 23 -5 85 85 ENE 7 11 29.91 1013 0 0 0.05 1.27
2:56 pm 14:56 Mostly Cloudy with Light Snow 27 -2.8 23 -5 85 85 NNE 6 9 29.93 1014 1 1 0.01 0.25
3:24 pm 15:24 Cloudy with Light Snow 27 -2.8 23 -5 85 85 N 5 7 29.94 1014 1 2 0.01 0.25
3:52 pm 15:52 Cloudy with Snow 27 -2.8 22 -5.6 81 81 ENE 7 11 29.91 1013 1 1 0.02 0.51
4:00 pm 16:00 Cloudy with Snow 27 -2.8 22 -5.6 81 81 NE 7 11 29.93 1014 1 1 0.01 0.25
4:13 pm 16:13 Cloudy with Snow 27 -2.8 23 -5 85 85 NE 6 9 29.94 1014 0 0 0.02 0.51
4:20 pm 16:20 Mostly Cloudy with Heavy Snow 27 -2.8 23 -5 85 85 NE 8 13 29.93 1014 0 0 0.04 1.02
4:30 pm 16:30 Cloudy with Snow 27 -2.8 23 -5 85 85 NNE 8 13 29.93 1014 1 1 0.05 1.27
4:38 pm 16:38 Cloudy with Snow 27 -2.8 23 -5 85 85 NNE 8 13 29.93 1014 1 1 0.05 1.27
4:52 pm 16:52 Cloudy with Light Snow 27 -2.8 22 -5.6 81 81 NE 7 11 29.91 1013 1 1 0.06 1.52
5:04 pm 17:04 Cloudy with Light Snow 27 -2.8 23 -5 85 85 N 7 11 29.93 1014 1 1 0.00 0.03
5:26 pm 17:26 Cloudy with Light Snow 26 -3.3 23 -5 88 88 N 8 13 29.94 1014 1 2 0.01 0.25
5:52 pm 17:52 Cloudy with Light Snow 26 -3.3 23 -5 88 88 N 7 11 29.90 1012 2 2 0.01 0.25
6:52 pm 18:52 Cloudy with Light Snow 26 -3.3 23 -5 88 88 N 10 17 29.91 1013 2 3 0.01 0.25
7:52 pm 19:52 Cloudy with Light Snow 26 -3.3 22 -5.6 84 84 N 13 20 29.91 1013 4 6 0.00 0.03
8:43 pm 20:43 Cloudy with Light Snow 26 -3.3 22 -5.6 84 84 NNW 12 19 29.95 1014 4 6 0.00 0.03
8:52 pm 20:52 Cloudy with Light Snow 26 -3.3 22 -5.6 84 84 NNW 13 20 29.91 1013 3 5 0.00 0.03
9:36 pm 21:36 Cloudy with Light Snow 26 -3.3 22 -5.6 84 84 NNW 14 22 29.95 1014 5 8 0.00 0.03
9:52 pm 21:52 Cloudy with Light Snow 26 -3.3 22 -5.6 84 84 NNW 12 19 29.92 1013 5 8 0.00 0.03
10:52 pm 22:52 Cloudy with Light Snow 26 -3.3 22 -5.6 84 84 NNW 13 20 29.93 1013 6 10 0.00 0.03
11:15 pm 23:15 Cloudy with Light Snow 26 -3.3 22 -5.6 84 84 NNW 12 19 29.96 1014 5 8 0.00 0.03
11:52 pm 23:52 Cloudy with Light Snow 26 -3.3 22 -5.6 84 84 NNW 12 19 29.93 1013 6 10 0.00 0.03

Powered by AerisWeather